Temp_Advection
nan nan nan nan nan nan nan nan nan nan nan nan nan nan nan nan nan nan nan nan nan nan nan nan nan nan nan nan nan nan nan nan nan nan nan nan nan nan nan nan nan nan nan
nan -0 -0 0 0 -0 0 0 0 -0 -0 -0 -0 -0 0 0 0 0 0 -0 -0 0 -0 0 0 0 0 -0 -0 -0 -0 0 0 -0 0 -0 -0 -0 -0 -0 0 0 nan
nan 0 0 -0 -0 -0 -0 -0 0 0 -0 -0 -0 -0 -0 -0 -0 0 0 -0 -0 0 -0 0 0 0 0 0 -0 -0 -0 0 0 0 0 -0 -0 -0 -0 -0 0 0 nan
nan -0 -0 0 -0 -0 -0 -0 -0 -0 -0 -0 -0 -0 -0 -0 -0 -0 -0 0 0 0 0 -0 -0 -0 0 0 -0 -0 -0 0 0 0 0 0 0 -0 -0 -0 -0 0 nan
nan -0 -0 0 0 0 0 -0 -0 -0 -0 -0 -0 -0 -0 -0 -0 -0 -0 0 0 0 0 -0 -0 -0 -0 0 0 -0 -0 0 0 0 -0 -0 0 -0 -0 -0 -0 0 nan
nan 0 0 0 -0 0 0 -0 -0 0 0 -0 -0 -0 -0 -0 -0 -0 0 0 0 0 0 0 -0 -0 -0 0 0 0 0 0 0 0 0 0 0 -0 -0 -0 0 0 nan
nan 0 -0 0 0 0 0 0 -0 -0 0 0 0 0 -0 -0 -0 -0 -0 0 0 0 0 0 0 -0 -0 -0 0 0 0 0 0 0 0 0 0 -0 -0 -0 0 0 nan
nan -0 0 -0 -0 -0 -0 -0 -0 0 0 -0 0 0 0 0 -0 -0 -0 -0 -0 0 0 0 0 -0 -0 -0 0 0 0 0 0 0 0 0 0 -0 -0 -0 0 0 nan
nan 0 0 0 0 0 0 -0 -0 -0 0 0 0 0 -0 -0 0 0 0 0 -0 -0 -0 0 0 0 -0 -0 -0 -0 0 0 0 0 -0 0 -0 -0 -0 -0 0 0 nan
nan -0 -0 0 0 0 0 0 0 -0 -0 -0 0 0 0 0 0 -0 -0 -0 0 0 0 -0 0 0 0 -0 -0 -0 0 0 0 0 0 0 -0 -0 -0 -0 0 0 nan
nan -0 -0 -0 -0 -0 -0 -0 0 0 0 0 -0 -0 0 1 0 -0 -0 -0 -0 0 0 0 -0 0 0 0 -0 -0 -0 0 0 1 0 -0 -0 -0 -0 0 -0 -0 nan
nan -0 -0 -0 -0 -0 -0 -0 -0 -0 -0 0 0 0 0 0 -0 0 0 0 -0 -0 0 0 0 0 0 0 0 0 -0 -0 1 0 -0 -0 -1 -0 0 0 0 -0 nan
nan -0 -0 -0 -0 -0 -0 -0 -0 -0 -0 -0 -0 -0 -0 0 1 -0 -1 -0 0 0 0 0 0 0 1 0 -0 0 0 0 -0 -0 -0 0 -1 -1 -0 0 0 0 nan
nan -0 -0 -0 -0 -0 -0 -0 -0 -0 -0 0 0 -0 -0 0 0 0 -0 -1 -1 0 0 -0 -0 0 0 0 -0 0 0 -0 -0 -0 -0 0 -0 -1 -0 -0 -0 0 nan
nan -0 -0 -0 -0 -0 -0 -0 -0 -0 0 -0 -0 -0 0 0 1 0 -0 -0 0 -0 -1 -0 -0 0 0 0 0 0 0 0 -0 -0 0 0 -0 -1 -0 0 0 0 nan
nan -0 -0 -0 -0 -0 -0 -0 -0 -1 -0 -0 -0 -0 -0 -0 0 0 0 -0 -0 -0 0 -0 -0 -0 -0 0 0 -0 0 0 0 0 -0 0 0 -0 -1 -1 -0 0 nan
nan -0 -0 -0 -0 -0 -0 -0 -0 -0 -1 -1 -1 -1 -1 -1 -1 0 0 -0 -0 -0 -0 0 0 -0 -1 -0 -0 -0 0 0 0 -0 0 0 -0 -0 -1 -1 -1 -0 nan
nan -0 -0 -0 -0 -0 -0 -0 -0 -0 -0 -0 -0 -0 -1 -1 -1 -1 -0 -0 -0 -0 -0 -0 -0 0 0 -0 -1 -1 -0 0 0 0 -0 -0 -0 0 0 -0 -1 -1 nan
nan -0 -0 -0 -0 -0 -0 -0 -0 0 -0 -0 -0 -0 0 -0 -1 -1 -1 -0 -0 -0 -0 -0 -0 -0 -0 -0 -0 -1 -0 -0 -0 0 -0 -1 -1 0 1 0 0 -1 nan
nan -0 -0 -0 -0 -0 -0 -0 -0 0 0 0 0 0 0 0 0 0 -0 -0 -0 -0 -0 -0 -0 -0 -0 -0 -0 -0 0 0 -0 -1 -0 0 -0 -1 -0 0 0 -0 nan
nan -0 -0 -0 -0 -0 -0 -0 -0 -0 0 0 -0 0 0 0 0 0 0 -0 -0 -0 -0 -0 -0 -0 -0 -0 -0 -0 -1 -1 -0 -0 -0 -0 -0 -1 -1 0 1 0 nan
nan -0 -0 0 0 0 0 -0 -0 -1 -0 0 -0 -0 0 0 0 0 0 0 -0 -0 -0 -0 -0 -0 -0 -0 -0 -0 -1 -1 -1 -1 -0 0 1 0 -0 -0 -0 0 nan
nan -0 -0 0 0 0 0 0 0 0 -0 -0 -0 -0 -0 -0 -0 -0 -0 -0 -0 -0 -0 -0 -0 -0 -0 -0 -0 -0 -1 -1 -1 -0 -0 0 0 -0 -0 -0 0 0 nan
nan -0 -0 -0 -0 -0 0 0 0 0 -0 -0 -1 -1 -1 -0 -0 -0 -0 -0 -0 -0 -0 -0 -0 0 -0 -0 -1 -0 -0 -0 -1 -1 -1 -1 -0 -0 -0 -0 -0 -0 nan
nan 0 -0 0 0 0 0 0 0 0 0 0 -0 -0 -0 -1 -0 -0 -0 -0 -0 -0 -0 -0 -0 -0 -0 0 -0 -1 -1 -0 -0 -1 -1 -1 -1 -1 -1 -0 0 -0 nan
nan nan nan nan nan nan nan nan nan nan nan nan nan nan nan nan nan nan nan nan nan nan nan nan nan nan nan nan nan nan nan nan nan nan nan nan nan nan nan nan nan nan nan
Wind_Speed
2 3 3 2 0 1 0 1 1 1 2 3 4 4 4 5 5 6 6 4 3 2 2 4 3 2 3 1 2 1 1 3 3 4 1 1 2 3 4 5 6 1 3
5 4 4 4 1 0 1 1 1 2 3 3 4 4 4 4 5 6 5 2 2 3 4 3 3 1 1 1 1 2 1 4 5 3 1 1 1 2 3 4 2 1 1
5 5 3 3 2 1 1 1 2 3 3 4 4 4 5 5 5 5 4 0 2 4 3 1 0 2 2 2 3 3 3 4 5 5 1 4 6 2 0 3 2 1 0
2 0 1 2 1 1 1 3 3 4 5 5 5 5 6 5 6 5 4 2 2 1 1 1 2 4 5 5 5 5 4 4 4 5 3 2 8 6 3 4 3 2 1
8 3 1 0 2 2 2 3 5 6 7 6 7 6 6 6 7 6 5 4 5 4 6 5 5 7 7 7 7 6 5 5 5 5 0 4 7 10 6 4 3 2 1
8 2 2 1 1 2 3 4 6 6 7 8 9 9 9 8 8 8 6 6 6 7 8 8 9 9 9 8 9 8 7 7 6 6 6 9 10 8 8 6 5 4 3
3 1 1 2 2 4 5 6 7 9 9 10 10 11 11 11 10 9 8 8 9 9 10 11 11 10 10 9 9 9 9 8 8 6 9 9 7 13 10 8 7 6 5
2 1 2 3 3 4 7 9 10 11 11 12 13 13 13 13 14 13 12 11 12 12 13 12 13 13 12 11 11 10 10 11 11 10 9 11 13 15 12 10 9 9 8
0 1 2 4 6 8 9 9 11 12 13 13 15 15 16 15 16 16 16 15 15 14 14 15 15 16 15 13 13 12 12 13 14 10 11 14 17 15 14 13 12 11 10
2 4 5 6 8 9 11 12 13 14 15 15 18 20 19 18 17 17 18 19 18 18 17 16 17 17 18 17 15 15 15 16 17 16 14 16 20 18 16 15 14 13 13
5 7 8 10 11 12 13 14 15 16 17 18 20 22 21 21 17 16 18 18 20 20 20 19 19 19 20 20 20 18 18 20 19 17 15 17 22 19 18 17 17 16 16
6 9 10 11 12 13 14 15 16 17 18 19 21 22 22 22 23 23 23 24 25 23 24 24 23 22 22 23 22 20 21 23 20 18 19 21 25 21 20 19 19 19 18
7 8 10 12 13 14 16 17 17 18 18 19 20 21 23 24 24 20 23 26 28 27 25 26 26 25 25 22 22 22 21 19 19 20 21 24 28 23 23 23 22 22 21
8 10 11 13 14 15 16 18 19 20 20 22 21 22 22 21 21 19 17 20 27 27 26 26 27 25 21 22 25 22 23 23 20 20 23 24 28 26 25 26 26 25 24
8 11 13 14 15 16 16 17 18 20 21 21 23 24 23 24 23 20 19 18 18 21 27 28 28 28 30 28 25 24 24 26 27 27 26 24 28 29 26 28 29 29 28
8 11 13 15 16 18 18 19 19 19 19 20 21 21 22 23 25 25 24 23 21 20 20 24 27 29 31 31 31 30 29 27 29 29 30 31 29 30 30 29 31 31 31
8 11 13 15 17 18 19 21 21 20 20 18 17 17 18 19 21 23 24 25 22 20 20 21 22 25 30 31 35 35 34 34 33 32 32 31 32 33 32 31 32 33 34
9 11 13 15 15 17 18 20 19 18 17 14 13 14 14 16 19 21 21 21 22 19 20 22 22 22 26 28 29 31 32 33 32 33 37 37 35 33 33 32 32 33 35
9 10 12 13 14 16 17 17 15 13 12 12 12 12 14 16 15 15 16 17 17 18 19 19 20 21 23 24 26 30 33 36 35 34 32 33 35 33 37 38 36 34 34
9 10 11 12 13 14 15 15 12 10 9 10 9 11 13 13 14 14 13 13 13 14 15 16 18 19 21 23 25 25 25 27 30 33 35 35 35 35 33 34 38 39 38
8 8 10 11 12 13 13 15 14 13 11 9 10 11 10 10 9 10 10 11 12 12 13 14 16 18 19 19 22 26 28 28 29 30 31 34 38 39 42 37 33 40 40
6 8 9 11 11 12 14 15 15 15 13 10 11 11 12 13 13 13 11 9 9 9 8 10 12 16 17 17 20 22 24 24 22 25 27 31 31 30 33 32 31 33 35
5 7 9 10 11 12 13 13 13 13 13 13 13 13 13 13 14 14 15 15 14 13 14 14 14 15 18 18 17 20 16 18 20 18 20 19 20 25 26 28 29 29 33
8 7 8 9 10 11 13 13 14 14 13 13 14 16 14 14 13 14 13 13 13 14 15 16 17 18 18 18 18 17 20 23 25 20 21 24 24 28 31 30 32 34 38
9 8 8 8 9 11 12 12 12 11 11 12 13 13 14 14 14 14 14 15 15 14 14 14 15 16 17 18 19 23 24 24 22 23 27 26 23 22 23 23 26 31 30
11 10 8 9 9 10 10 10 9 10 10 11 12 11 12 12 14 13 13 14 14 13 13 13 14 16 17 16 19 20 20 20 24 25 28 28 29 29 27 29 27 27 27
Wind_Direction
24 19 353 352 157 126 193 285 274 257 291 319 324 325 325 324 328 335 339 351 17 31 115 154 159 89 119 78 73 49 191 176 164 151 136 72 63 66 63 58 72 24 66
66 16 346 343 295 359 237 253 266 279 296 305 317 320 322 326 333 338 339 4 47 87 117 143 192 234 247 303 28 3 305 222 210 198 172 336 58 93 69 42 48 10 166
48 49 11 283 338 340 302 260 250 259 281 298 309 311 315 323 334 340 339 351 103 118 118 157 172 303 284 252 292 311 287 240 231 216 213 28 310 278 29 8 4 358 264
85 300 240 148 110 315 314 288 279 269 267 280 293 298 303 309 323 331 327 241 205 187 187 272 293 297 288 276 277 283 275 246 229 198 134 261 286 278 281 328 333 345 18
58 227 360 160 197 189 231 269 279 278 282 278 280 288 295 298 308 311 306 275 252 250 259 263 280 308 296 274 273 275 263 242 226 205 84 240 248 270 273 298 292 314 286
67 127 243 324 333 284 272 264 251 263 270 274 280 282 282 282 291 295 288 279 265 258 262 265 273 295 301 282 269 267 255 244 234 207 234 250 238 264 278 284 285 288 273
150 137 67 350 316 319 311 298 284 275 272 267 265 271 277 275 276 280 281 277 274 269 269 274 268 283 293 287 275 268 252 242 232 190 232 241 244 258 273 277 271 272 270
174 270 314 308 299 281 280 283 283 284 280 278 277 273 269 269 269 267 268 269 270 270 270 271 266 275 282 283 275 268 257 245 235 222 251 249 248 260 269 271 264 266 269
130 341 318 309 299 294 279 279 277 280 281 282 279 276 271 266 266 265 265 267 269 271 272 270 268 272 274 275 273 268 260 250 243 242 253 252 259 264 261 268 260 261 264
316 316 317 312 304 295 292 288 283 282 278 281 280 283 280 275 273 274 274 270 268 270 272 272 270 267 272 270 269 266 261 255 249 242 237 248 250 259 260 262 259 255 256
304 305 305 304 303 302 299 295 290 285 280 279 277 279 282 280 271 269 275 276 272 268 269 269 269 269 265 265 266 266 263 256 253 258 248 250 257 257 259 258 260 258 255
289 299 303 304 304 303 302 300 299 295 291 285 281 279 279 278 278 278 268 269 274 271 270 269 267 268 265 259 263 264 263 263 251 245 250 251 254 256 258 259 259 260 257
296 302 307 309 310 308 306 305 301 295 294 290 285 283 277 276 278 277 274 267 272 274 272 271 268 266 268 257 258 255 265 275 253 251 252 253 260 260 259 259 259 259 259
306 312 313 316 316 314 312 308 304 300 293 289 285 277 281 275 273 273 269 277 271 267 266 268 270 269 251 251 250 251 250 247 250 253 252 260 268 268 260 259 260 258 259
303 311 318 322 321 319 317 312 308 303 299 292 289 287 280 277 274 269 268 266 267 277 269 262 266 266 260 253 249 255 259 259 254 251 252 258 264 270 265 261 260 260 259
307 310 318 324 326 326 324 321 316 309 302 298 294 291 286 282 276 272 269 265 262 261 265 275 265 265 267 263 261 254 252 253 260 264 261 259 258 269 271 263 261 260 259
298 313 321 327 327 328 329 328 326 321 316 311 306 302 297 292 285 278 272 265 264 258 262 263 268 271 270 270 271 268 268 270 261 255 256 264 265 262 266 271 262 260 260
296 311 321 326 330 331 333 333 331 329 331 331 322 321 318 308 302 293 284 277 270 268 265 261 261 264 273 267 269 269 270 268 269 268 264 263 258 261 267 268 270 264 259
295 307 319 326 332 333 335 338 336 340 345 340 343 338 329 334 326 314 301 288 282 269 262 266 268 267 268 274 280 280 271 268 271 271 270 273 270 265 259 261 263 267 266
284 306 322 328 331 333 335 343 345 347 346 343 332 339 344 338 331 327 321 309 300 291 283 276 274 274 273 273 273 272 274 276 275 272 271 267 270 275 268 263 263 262 267
281 312 323 331 337 340 340 343 344 345 344 334 321 328 326 324 328 345 323 320 317 303 294 284 278 275 276 276 279 281 281 279 275 274 280 278 272 271 270 270 269 260 261
277 311 325 330 336 338 341 339 341 337 340 326 329 332 330 331 327 324 315 298 284 286 282 286 287 287 281 280 278 283 288 289 282 273 272 266 268 265 267 269 269 269 269
263 296 315 326 336 338 339 342 339 332 329 329 334 336 338 333 326 325 323 323 318 305 293 283 278 281 289 280 274 277 288 279 298 272 274 280 287 290 278 272 270 272 265
253 286 307 322 332 340 344 344 343 344 341 338 339 341 336 329 329 327 323 318 315 310 303 298 291 288 289 293 291 282 279 288 295 297 290 286 282 277 290 293 283 277 280
252 274 296 317 330 336 339 342 347 350 347 348 342 345 342 339 341 342 333 326 320 313 308 304 298 292 290 293 298 297 289 287 289 300 299 303 294 290 290 293 292 291 289
253 267 288 301 312 323 330 335 342 351 356 355 353 352 349 347 347 344 338 332 329 328 324 318 314 303 291 288 284 287 295 303 302 299 299 297 295 294 292 290 293 286 281
Height
1536 1536 1536 1536 1536 1536 1537 1537 1538 1538 1539 1539 1539 1539 1539 1539 1538 1537 1537 1536 1535 1535 1535 1535 1536 1536 1537 1537 1537 1536 1536 1536 1537 1537 1537 1537 1537 1537 1537 1537 1537 1538 1537
1536 1537 1537 1536 1536 1537 1537 1538 1538 1539 1539 1539 1539 1539 1539 1539 1539 1538 1537 1537 1536 1536 1536 1536 1536 1537 1537 1537 1537 1537 1537 1537 1537 1538 1538 1538 1538 1538 1538 1538 1538 1537 1537
1537 1536 1535 1536 1536 1537 1537 1538 1539 1539 1539 1539 1539 1539 1539 1539 1539 1538 1538 1538 1538 1537 1537 1537 1537 1537 1537 1537 1537 1537 1537 1537 1537 1538 1539 1539 1538 1538 1538 1538 1537 1537 1537
1536 1535 1535 1535 1536 1537 1538 1539 1539 1539 1539 1540 1540 1539 1539 1539 1538 1538 1538 1538 1538 1538 1538 1538 1538 1538 1537 1537 1537 1537 1537 1537 1537 1538 1539 1542 1540 1539 1538 1538 1537 1537 1537
1537 1535 1535 1535 1536 1537 1537 1538 1539 1539 1539 1539 1539 1539 1539 1539 1538 1538 1538 1537 1538 1538 1538 1538 1538 1538 1537 1537 1537 1537 1536 1537 1537 1538 1540 1541 1540 1538 1538 1538 1537 1537 1537
1536 1536 1536 1536 1536 1537 1538 1538 1538 1538 1539 1539 1539 1539 1539 1539 1538 1538 1537 1537 1537 1537 1537 1537 1537 1537 1537 1536 1536 1536 1536 1536 1537 1538 1540 1540 1540 1538 1538 1537 1537 1537 1537
1536 1536 1536 1536 1537 1537 1538 1538 1538 1538 1538 1538 1538 1538 1538 1538 1538 1537 1537 1536 1536 1536 1536 1536 1536 1536 1536 1535 1535 1535 1535 1536 1536 1537 1539 1539 1538 1537 1536 1536 1536 1536 1536
1536 1536 1537 1537 1537 1537 1538 1538 1537 1537 1537 1537 1536 1536 1536 1536 1536 1536 1535 1535 1535 1535 1534 1534 1534 1534 1534 1534 1533 1533 1534 1534 1535 1536 1537 1537 1536 1535 1535 1535 1535 1535 1535
1536 1536 1537 1536 1537 1536 1537 1537 1536 1536 1535 1535 1534 1534 1534 1533 1533 1533 1534 1533 1533 1533 1533 1532 1532 1532 1532 1532 1531 1531 1531 1532 1533 1535 1536 1536 1534 1533 1533 1533 1533 1533 1533
1536 1536 1536 1536 1536 1535 1535 1535 1534 1534 1534 1533 1533 1532 1532 1532 1532 1531 1531 1531 1531 1531 1530 1530 1530 1530 1530 1529 1529 1529 1529 1529 1529 1530 1532 1533 1531 1531 1531 1531 1531 1531 1532
1536 1536 1535 1535 1534 1534 1533 1532 1532 1531 1531 1531 1530 1529 1529 1529 1529 1529 1528 1528 1528 1528 1527 1527 1527 1527 1527 1526 1526 1526 1525 1524 1525 1526 1527 1529 1527 1528 1528 1528 1528 1529 1529
1536 1535 1535 1533 1532 1531 1531 1530 1529 1528 1528 1527 1527 1526 1526 1525 1525 1524 1525 1524 1524 1524 1523 1523 1523 1523 1523 1522 1522 1522 1521 1521 1521 1523 1524 1524 1523 1524 1525 1525 1526 1526 1526
1534 1534 1533 1532 1530 1529 1528 1527 1526 1525 1524 1523 1522 1522 1521 1521 1520 1521 1520 1520 1519 1519 1518 1518 1519 1519 1519 1519 1518 1519 1517 1518 1518 1520 1520 1520 1519 1519 1520 1521 1521 1522 1523
1532 1531 1531 1530 1528 1527 1525 1524 1523 1521 1520 1519 1518 1516 1516 1515 1516 1516 1516 1516 1514 1514 1514 1514 1513 1514 1514 1515 1515 1516 1515 1515 1516 1516 1516 1516 1515 1515 1516 1516 1517 1517 1518
1530 1529 1529 1527 1526 1525 1523 1522 1520 1518 1516 1514 1512 1512 1511 1510 1510 1510 1511 1512 1512 1510 1508 1509 1509 1508 1509 1509 1509 1510 1509 1510 1510 1511 1511 1511 1510 1510 1511 1511 1512 1512 1513
1528 1528 1527 1525 1523 1521 1520 1518 1516 1514 1512 1510 1508 1506 1505 1504 1503 1503 1503 1504 1505 1506 1506 1504 1503 1503 1502 1503 1503 1504 1504 1505 1505 1504 1504 1505 1504 1504 1505 1505 1506 1507 1507
1527 1526 1525 1523 1521 1519 1517 1514 1512 1510 1508 1506 1504 1502 1501 1499 1498 1497 1497 1497 1498 1500 1500 1500 1500 1498 1497 1497 1496 1496 1496 1497 1498 1498 1498 1498 1498 1498 1498 1499 1500 1500 1501
1526 1525 1522 1521 1520 1518 1515 1512 1510 1507 1505 1504 1502 1500 1498 1496 1494 1492 1491 1491 1492 1493 1494 1494 1494 1494 1492 1492 1491 1490 1490 1490 1490 1490 1491 1491 1492 1493 1491 1492 1493 1493 1494
1523 1523 1521 1519 1518 1516 1514 1511 1509 1507 1505 1504 1502 1500 1497 1494 1492 1490 1488 1487 1487 1487 1488 1488 1489 1489 1488 1488 1486 1484 1484 1483 1483 1483 1483 1483 1483 1484 1485 1485 1485 1486 1486
1521 1520 1519 1518 1516 1514 1512 1510 1508 1506 1504 1504 1501 1498 1496 1494 1491 1488 1487 1485 1484 1484 1484 1484 1484 1484 1484 1483 1482 1480 1479 1478 1477 1476 1476 1476 1476 1474 1476 1477 1477 1477 1478
1518 1517 1516 1515 1513 1512 1510 1508 1506 1505 1502 1500 1498 1495 1493 1490 1488 1488 1486 1485 1484 1483 1482 1482 1481 1480 1478 1478 1477 1474 1473 1471 1471 1470 1468 1467 1467 1467 1467 1468 1469 1469 1469
1515 1515 1514 1513 1512 1511 1509 1507 1505 1502 1500 1498 1496 1494 1492 1489 1486 1485 1483 1482 1481 1479 1479 1478 1478 1477 1476 1475 1473 1471 1468 1467 1466 1465 1465 1461 1461 1460 1458 1459 1460 1460 1460
1513 1513 1513 1512 1511 1509 1507 1505 1504 1502 1499 1496 1494 1492 1490 1488 1486 1484 1482 1480 1479 1477 1476 1475 1474 1473 1471 1470 1471 1470 1465 1462 1461 1460 1458 1457 1457 1454 1453 1453 1452 1452 1452
1510 1511 1511 1511 1509 1507 1506 1504 1502 1500 1498 1495 1492 1490 1488 1486 1484 1482 1480 1478 1476 1474 1473 1472 1471 1470 1468 1466 1465 1466 1464 1462 1459 1454 1455 1454 1454 1452 1451 1449 1448 1447 1446
1509 1510 1510 1509 1507 1506 1504 1503 1501 1499 1497 1494 1492 1490 1487 1484 1482 1480 1478 1477 1474 1472 1471 1470 1468 1466 1464 1462 1462 1461 1459 1458 1457 1455 1449 1449 1449 1449 1448 1446 1443 1440 1438
1507 1508 1507 1507 1506 1505 1503 1501 1499 1498 1495 1493 1491 1489 1486 1483 1480 1478 1476 1474 1472 1470 1468 1467 1465 1463 1461 1459 1458 1457 1456 1455 1452 1451 1447 1445 1444 1443 1443 1441 1440 1437 1434